"2009-06-25 00:00:00",1005422,4.463,228.4,4.459,0.485,20.65,109.1476,22.71,23.7,39.28,0,110.9,13.18,23.54,190.4
"2009-06-25 00:00:30",1005423,4.043,241.3,12.9,0.618,18.47,109.1506,22.71,23.7,38.11,0,111,13.18,23.54,203.3
"2009-06-25 00:01:00",1005424,3.072,244.1,16.89,0.574,20.98,109.1257,22.65,23.67,37.62,0,111,13.18,23.48,206.1
"2009-06-25 00:01:30",1005425,2.909,195.8,24.18,0.266,21.06,109.1241,22.64,23.63,37.69,0,110.9,13.18,23.48,157.8
"2009-06-25 00:02:00",1005426,3.673,186.4,7.019,0.394,20.96,109.0968,22.57,23.61,37.49,0,111,13.18,23.41,148.4
"2009-06-25 00:02:30",1005427,4.032,212,5.399,0.531,21.07,109.0956,22.57,23.58,37.21,0,110.9,13.18,23.40,174.0
"2009-06-25 00:03:00",1005428,3.795,210.4,12.52,0.721,21.82,109.0778,22.53,23.55,36.89,0,110.9,13.18,23.36,172.4
"2009-06-25 00:03:30",1005429,5.228,207.2,8.67,0.723,21.22,109.0661,22.5,23.53,36.57,0,110.9,13.17,23.33,169.2
"2009-06-25 00:04:00",1005430,4.783,196.8,7.981,0.68,21.13,109.063,22.49,23.51,36.37,0,110.9,13.17,23.32,158.8
"2009-06-25 00:04:30",1005431,3.768,205.8,10.97,0.628,21.1,109.0413,22.43,23.48,36.36,0,110.9,13.17,23.26,167.8
"2009-06-25 00:05:00",1005432,6.231,212.1,13.33,1.781,20.67,109.0203,22.38,23.46,37.03,0,110.9,13.17,23.21,174.1
"2009-06-25 00:05:30",1005433,4.136,199.2,13.79,1.094,21.32,109.0046,22.34,23.39,34.94,0,110.9,13.18,23.17,161.2
"2009-06-25 00:06:00",1005434,4.432,196.8,6.994,0.761,21.57,108.9995,22.32,23.37,33.81,0,110.9,13.18,23.15,158.8
"2009-06-25 00:06:30",1005435,5.868,226.1,7.354,0.955,21.35,109.0007,22.33,23.34,33.57,0,110.9,13.18,23.16,188.1
"2009-06-25 00:07:00",1005436,6.177,219.9,10.81,0.981,22.58,109.0067,22.34,23.32,33.38,0,110.9,13.18,23.17,181.9
"2009-06-25 00:07:30",1005437,7.082,216.7,7.651,0.854,21.34,109.0279,22.4,23.34,33.37,0,110.9,13.18,23.23,178.7
"2009-06-25 00:08:00",1005438,7.409,202.6,5.809,1.184,21.38,109.058,22.47,23.37,33.86,0,110.9,13.19,23.31,164.6
"2009-06-25 00:08:30",1005439,5.893,211.7,4.459,0.815,20.83,109.0939,22.57,23.42,34.12,0,110.9,13.19,23.40,173.7
"2009-06-25 00:09:00",1005440,7.52,223.4,7.484,1.032,19.99,109.0898,22.56,23.44,36.37,0,110.9,13.19,23.39,185.4
"2009-06-25 00:09:30",1005441,10.1,227.1,5.328,1.157,20.17,109.0734,22.51,23.44,38.87,0,110.9,13.19,23.35,189.1
"2009-06-25 00:10:00",1005442,10.31,218.7,4.151,0.861,20.89,109.0743,22.52,23.43,36.06,0,110.9,13.19,23.35,180.7
"2009-06-25 00:10:30",1005443,10.88,224.1,4.067,0.78,20.42,109.075,22.52,23.42,38.1,0,110.9,13.19,23.35,186.1
"2009-06-25 00:11:00",1005444,11.46,227.5,2.938,0.412,20.69,109.0663,22.5,23.41,39.27,0,110.9,13.19,23.33,189.5
"2009-06-25 00:11:30",1005445,10.75,227.2,6.513,0.869,20.94,109.0511,22.46,23.4,37.3,0,110.9,13.19,23.29,189.2
"2009-06-25 00:12:00",1005446,10.36,212.3,7.316,0.734,21.27,109.0542,22.47,23.38,32.89,0,110.9,13.19,23.30,174.3
"2009-06-25 00:12:30",1005447,9.17,210.7,5.659,0.555,20.68,109.0618,22.48,23.39,34.57,0,110.9,13.19,23.32,172.7
"2009-06-25 00:13:00",1005448,10.32,207.6,4.199,0.369,20.66,109.0517,22.46,23.4,38.59,0,110.9,13.19,23.29,169.6
"2009-06-25 00:13:30",1005449,9.38,210.1,5.438,0.992,18.27,109.0196,22.38,23.38,40.89,0,110.9,13.19,23.21,172.1
"2009-06-25 00:14:00",1005450,10,219.5,3.656,0.418,21.86,108.9555,22.21,23.28,38.93,0,110.9,13.19,23.04,181.5
"2009-06-25 00:14:30",1005451,9.78,218.7,3.89,0.566,18.96,108.937,22.16,23.21,40.55,0,110.9,13.19,22.99,180.7
"2009-06-25 00:15:00",1005452,8.71,194.4,14.3,1.164,21.07,108.9072,22.09,23.12,34.52,0,110.9,13.19,22.92,156.4
"2009-06-25 00:15:30",1005453,8.03,192.7,3.947,0.915,20.91,108.9207,22.12,23.09,32.22,0,110.9,13.19,22.95,154.7
"2009-06-25 00:16:00",1005454,6.446,195,9.32,0.661,20.88,108.9375,22.17,23.11,32.39,0,110.9,13.19,22.99,157.0
"2009-06-25 00:16:30",1005455,6.892,213,6.566,0.902,21.01,108.9361,22.16,23.1,31.83,0,110.9,13.19,22.99,175.0
"2009-06-25 00:17:00",1005456,6.405,218.7,4.521,0.84,21.36,108.9375,22.17,23.08,31.03,0,110.9,13.19,22.99,180.7
"2009-06-25 00:17:30",1005457,5.724,214.8,8.28,1.017,21.34,108.9406,22.17,23.09,30.63,0,110.9,13.19,23.00,176.8
"2009-06-25 00:18:00",1005458,5.304,211.8,8.06,0.621,21.07,108.9462,22.19,23.09,30.92,0,110.9,13.19,23.02,173.8
"2009-06-25 00:18:30",1005459,5.664,204.3,8.64,0.657,20.91,108.9735,22.26,23.13,31.31,0,110.9,13.19,23.09,166.3
"2009-06-25 00:19:00",1005460,5.174,213.5,6.889,0.472,21.03,108.9744,22.26,23.15,31.37,0,110.9,13.19,23.09,175.5
"2009-06-25 00:19:30",1005461,4.983,206.4,13.65,0.983,20.58,108.9744,22.26,23.16,31.67,0,110.9,13.19,23.09,168.4
"2009-06-25 00:20:00",1005462,7.368,198.3,12.77,0.7,20.56,108.9749,22.26,23.18,31.95,0,110.9,13.19,23.09,160.3
"2009-06-25 00:20:30",1005463,7.666,204.2,7.208,1.062,20.44,108.98,22.27,23.2,32.22,0,110.9,13.19,23.10,166.2
"2009-06-25 00:21:00",1005464,4.507,201.6,11.18,1.216,18.07,108.9836,22.28,23.21,32.38,0,110.9,13.19,23.11,163.6
"2009-06-25 00:21:30",1005465,8.14,208.3,3.365,0.468,21.33,108.9876,22.29,23.21,31.41,0,110.9,13.19,23.12,170.3
"2009-06-25 00:22:00",1005466,7.815,209.3,3.612,0.401,21.44,108.9997,22.33,23.22,30.98,0,110.9,13.19,23.16,171.3
"2009-06-25 00:22:30",1005467,10.21,200.4,4.5,1.173,21.77,109.0081,22.35,23.23,30.62,0,110.9,13.19,23.18,162.4
"2009-06-25 00:23:00",1005468,9.62,194.4,5.03,1.205,21.65,109.0247,22.39,23.26,30.31,0,110.9,13.19,23.22,156.4
"2009-06-25 00:23:30",1005469,9.78,206.8,5.162,0.794,21.75,109.0418,22.43,23.28,29.96,0,110.9,13.19,23.26,168.8
"2009-06-25 00:24:00",1005470,9.02,206.3,2.306,0.426,21.4,109.0418,22.43,23.32,30.01,0,110.9,13.19,23.26,168.3
"2009-06-25 00:24:30",1005471,8.29,209.8,2.147,0.273,20.99,109.0421,22.43,23.33,30.49,0,110.9,13.19,23.26,171.8
"2009-06-25 00:25:00",1005472,7.835,210.4,3.683,0.333,20.81,109.0477,22.45,23.36,31.13,0,110.9,13.19,23.28,172.4
"2009-06-25 00:25:30",1005473,8.14,205.8,6.218,0.505,21.21,109.0584,22.48,23.39,30.59,0,110.9,13.19,23.31,167.8
"2009-06-25 00:26:00",1005474,8.74,205.2,2.279,0.547,21.04,109.073,22.51,23.38,30.61,0,110.9,13.19,23.34,167.2
"2009-06-25 00:26:30",1005475,8.25,198.3,5.79,0.612,20.85,109.0756,22.52,23.41,30.72,0,110.9,13.19,23.35,160.3
"2009-06-25 00:27:00",1005476,7.983,198.5,6.695,0.367,20.39,109.0756,22.52,23.42,31.47,0,110.9,13.19,23.35,160.5
"2009-06-25 00:27:30",1005477,8.49,200.4,4.737,0.969,20.88,109.0756,22.52,23.44,31.39,0,110.9,13.19,23.35,162.4
"2009-06-25 00:28:00",1005478,8.77,194.4,8.51,0.724,20.43,109.0767,22.52,23.46,31.5,0,110.9,13.19,23.35,156.4
"2009-06-25 00:28:30",1005479,8.55,202.9,9,0.82,20.39,109.0795,22.53,23.46,32.61,0,110.9,13.19,23.36,164.9
"2009-06-25 00:29:00",1005480,10.13,193.1,1.198,0.292,21.04,109.0789,22.53,23.49,31.47,0,110.9,13.19,23.36,155.1
"2009-06-25 00:29:30",1005481,11.67,186.9,2.523,0.673,20.88,109.082,22.54,23.5,31.63,0,110.9,13.19,23.37,148.9
"2009-06-25 00:30:00",1005482,10.56,190.7,5.375,0.974,21.45,109.0846,22.54,23.5,31.06,0,110.9,13.19,23.37,152.7
"2009-06-25 00:30:30",1005483,9.27,192.6,3.977,0.72,21.39,109.0877,22.55,23.51,30.16,0,110.9,13.2,23.38,154.6
"2009-06-25 00:31:00",1005484,9.33,187.5,2.106,0.516,20.79,109.0961,22.57,23.51,31.17,0,110.9,13.19,23.40,149.5
"2009-06-25 00:31:30",1005485,9.93,188.2,2.494,0.849,21.5,109.1035,22.59,23.52,30.83,0,110.9,13.2,23.42,150.2
"2009-06-25 00:32:00",1005486,9.09,187.4,3.19,0.487,21.55,109.1087,22.61,23.51,29.93,0,110.9,13.2,23.44,149.4
"2009-06-25 00:32:30",1005487,9.93,180.7,1.706,0.184,20.95,109.1093,22.61,23.54,30.84,0,110.9,13.19,23.44,142.7
"2009-06-25 00:33:00",1005488,11.2,187.4,6.814,0.902,21.35,109.1163,22.62,23.54,30.46,0,110.9,13.2,23.46,149.4
"2009-06-25 00:33:30",1005489,9.66,195.4,2.368,0.559,21.44,109.1431,22.69,23.57,29.92,0,110.9,13.2,23.52,157.4
"2009-06-25 00:34:00",1005490,10.75,189.4,3.371,0.562,20.81,109.1678,22.76,23.62,31.1,0,110.9,13.2,23.59,151.4
"2009-06-25 00:34:30",1005491,9.46,184.9,3.983,0.497,21.62,109.1768,22.78,23.66,30.6,0,110.9,13.2,23.61,146.9
"2009-06-25 00:35:00",1005492,9.28,182,3.601,0.458,21.28,109.1802,22.79,23.67,30.22,0,110.9,13.2,23.62,144.0
"2009-06-25 00:35:30",1005493,10.33,186.8,3.483,0.653,20.81,109.1849,22.8,23.69,31.29,0,110.9,13.2,23.63,148.8
"2009-06-25 00:36:00",1005494,9.16,174.9,5.39,0.33,20.88,109.1886,22.81,23.72,32.03,0,110.9,13.2,23.64,136.9
"2009-06-25 00:36:30",1005495,6.467,177.2,8.41,0.682,20.67,109.1852,22.8,23.74,31.91,0,110.9,13.19,23.63,139.2
"2009-06-25 00:37:00",1005496,9.63,188.3,5.204,2.451,21.03,109.1836,22.8,23.74,31.84,0,110.9,13.19,23.63,150.3
"2009-06-25 00:37:30",1005497,11.37,187.3,3.38,0.598,20.71,109.1842,22.8,23.75,31.68,0,110.9,13.19,23.63,149.3
"2009-06-25 00:38:00",1005498,11.54,196.6,7.52,0.88,20.68,109.1791,22.79,23.75,32.47,0,110.9,13.19,23.62,158.6
"2009-06-25 00:38:30",1005499,9.45,204.3,4.699,0.84,20.96,109.1774,22.78,23.75,31.5,0,110.9,13.19,23.61,166.3
"2009-06-25 00:39:00",1005500,10.1,192.6,10.71,1.791,20.21,109.1777,22.78,23.74,33.33,0,110.9,13.19,23.61,154.6
"2009-06-25 00:39:30",1005501,9.47,200.7,5.785,1.759,20.35,109.1748,22.77,23.75,34.32,0,110.9,13.19,23.61,162.7
"2009-06-25 00:40:00",1005502,7.213,204.4,5.465,0.726,19.8,109.1555,22.73,23.74,34.78,0,110.9,13.19,23.56,166.4
"2009-06-25 00:40:30",1005503,9.52,195.2,4.676,0.971,20.89,109.1433,22.69,23.71,34.8,0,110.9,13.19,23.53,157.2
"2009-06-25 00:41:00",1005504,9.45,202.5,4.433,0.483,21.35,109.1327,22.67,23.68,32.29,0,110.9,13.19,23.50,164.5
"2009-06-25 00:41:30",1005505,9.22,193.3,7.387,0.589,20.9,109.1125,22.62,23.66,32.42,0,110.9,13.19,23.45,155.3
"2009-06-25 00:42:00",1005506,8.47,200.5,4.005,0.627,21.32,109.1091,22.61,23.63,31.91,0,110.9,13.19,23.44,162.5
"2009-06-25 00:42:30",1005507,10.1,184.6,5.279,0.628,20.68,109.0925,22.56,23.61,32.23,0,110.9,13.2,23.39,146.6
"2009-06-25 00:43:00",1005508,8.94,178.1,4.558,1.09,20.32,109.0768,22.52,23.59,33.04,0,110.9,13.2,23.35,140.1
"2009-06-25 00:43:30",1005509,7.348,211.3,6.915,0.692,20.5,109.0545,22.47,23.56,32.84,0,110.9,13.2,23.30,173.3
"2009-06-25 00:44:00",1005510,8.32,197.8,8.87,0.982,20.59,109.0431,22.44,23.51,33.09,0,110.9,13.2,23.27,159.8
"2009-06-25 00:44:30",1005511,8.94,191.1,7.658,1.177,20.89,109.022,22.38,23.48,33.41,0,110.9,13.2,23.21,153.1
"2009-06-25 00:45:00",1005512,9.69,193.8,5.056,0.849,20.66,108.9976,22.32,23.43,33.91,0,110.9,13.2,23.15,155.8
"2009-06-25 00:45:30",1005513,9.25,204.2,11.62,1.501,20.94,108.9765,22.27,23.36,32.97,0,110.9,13.2,23.10,166.2
"2009-06-25 00:46:00",1005514,7.207,195.1,9.3,0.87,20.73,108.9717,22.25,23.33,32.39,0,110.9,13.2,23.08,157.1
"2009-06-25 00:46:30",1005515,7.362,186.2,8.32,1.398,20.81,108.9587,22.22,23.3,32.13,0,110.9,13.2,23.05,148.2
"2009-06-25 00:47:00",1005516,8.82,192.9,6.789,0.743,20.37,108.9518,22.2,23.29,33.88,0,110.9,13.2,23.03,154.9
"2009-06-25 00:47:30",1005517,7.294,198.7,4.978,0.522,20.41,108.9454,22.19,23.25,34.34,0,110.9,13.2,23.02,160.7
"2009-06-25 00:48:00",1005518,6.597,203.8,4.191,0.394,21.31,108.9428,22.18,23.24,33.46,0,110.9,13.2,23.01,165.8
"2009-06-25 00:48:30",1005519,6.664,218.2,1.81,0.365,20.72,108.9446,22.18,23.22,33.94,0,110.9,13.2,23.01,180.2
"2009-06-25 00:49:00",1005520,6.246,221.4,1.889,0.256,20.86,108.9294,22.14,23.21,33.67,0,110.9,13.2,22.97,183.4
"2009-06-25 00:49:30",1005521,5.841,213.8,3.635,0.213,20.29,108.9131,22.1,23.2,34.49,0,110.9,13.2,22.93,175.8
"2009-06-25 00:50:00",1005522,6.105,220.2,4.224,0.206,20.47,108.9136,22.1,23.16,34.82,0,110.9,13.2,22.93,182.2
"2009-06-25 00:50:30",1005523,6.675,217.4,4.715,0.776,20.12,108.8986,22.07,23.14,34.79,0,110.9,13.2,22.89,179.4
"2009-06-25 00:51:00",1005524,5.062,188.5,15.97,0.961,19.82,108.8799,22.02,23.1,35.31,0,110.9,13.2,22.85,150.5
"2009-06-25 00:51:30",1005525,6.06,179,7.333,0.597,19.49,108.858,21.96,23.08,36.06,0,110.9,13.2,22.79,141.0
"2009-06-25 00:52:00",1005526,5.004,186.2,20.53,0.812,19.7,108.8423,21.92,23.02,36.37,0,110.9,13.2,22.75,148.2
"2009-06-25 00:52:30",1005527,6.243,207.5,10.05,0.653,20.18,108.8216,21.87,22.99,35.23,0,110.9,13.2,22.70,169.5
"2009-06-25 00:53:00",1005528,5.968,174.9,7.444,0.776,20.19,108.7989,21.81,22.95,35.42,0,110.9,13.2,22.64,136.9
"2009-06-25 00:53:30",1005529,6.299,195.4,7.953,0.605,20.39,108.7895,21.79,22.89,35.16,0,110.9,13.2,22.61,157.4
"2009-06-25 00:54:00",1005530,4.698,195.6,5.574,0.497,20.56,108.7635,21.72,22.85,34.89,0,110.9,13.2,22.55,157.6
"2009-06-25 00:54:30",1005531,3.852,201.8,14.84,0.363,20.41,108.7636,21.72,22.81,34.76,0,110.9,13.2,22.55,163.8
"2009-06-25 00:55:00",1005532,4.262,173.5,10.26,0.683,20.2,108.7369,21.65,22.77,35.27,0,110.9,13.2,22.48,135.5
"2009-06-25 00:55:30",1005533,4.872,159.9,4.978,0.446,20.07,108.7344,21.64,22.75,35.69,0,110.9,13.2,22.47,121.9
"2009-06-25 00:56:00",1005534,4.536,166.7,18.9,0.367,20.06,108.7099,21.58,22.69,36,0,110.9,13.2,22.41,128.7
"2009-06-25 00:56:30",1005535,4.554,195.8,6.981,0.656,20.75,108.7013,21.56,22.65,35.1,0,110.9,13.2,22.39,157.8
"2009-06-25 00:57:00",1005536,3.264,207.7,7.502,0.567,21.16,108.705,21.57,22.62,34.63,0,110.9,13.2,22.40,169.7
"2009-06-25 00:57:30",1005537,3.329,194.4,12.29,1.464,20.93,108.695,21.54,22.59,34.55,0,110.9,13.2,22.37,156.4
"2009-06-25 00:58:00",1005538,5.164,197.7,6.931,0.593,20.43,108.6793,21.5,22.57,35.74,0,110.8,13.2,22.33,159.7
"2009-06-25 00:58:30",1005539,5.593,192.8,5.739,0.398,20.89,108.6733,21.49,22.54,35.83,0,110.9,13.2,22.31,154.8
"2009-06-25 00:59:00",1005540,5.06,179.9,6.627,0.443,21.15,108.6736,21.49,22.53,35.64,0,110.9,13.2,22.32,141.9
"2009-06-25 00:59:30",1005541,4.553,208,10.89,0.317,21.29,108.6689,21.48,22.51,35.4,0,110.8,13.21,22.30,170.0
"2009-06-25 01:00:00",1005542,3.861,192.2,8.73,0.677,21.12,108.6542,21.44,22.5,35.32,0,110.8,13.21,22.27,154.2
"2009-06-25 01:00:30",1005543,4.767,169.7,9.44,0.624,20.85,108.6399,21.4,22.48,35.73,0,110.8,13.21,22.23,131.7
"2009-06-25 01:01:00",1005544,3.689,172.9,11.15,0.57,20.77,108.6399,21.4,22.46,35.82,0,110.8,13.21,22.23,134.9
"2009-06-25 01:01:30",1005545,3.955,185.7,8.61,0.644,20.83,108.6275,21.37,22.44,35.59,0,110.8,13.21,22.20,147.7
"2009-06-25 01:02:00",1005546,3.491,191.5,11.82,0.491,20.77,108.6112,21.33,22.41,35.61,0,110.8,13.21,22.15,153.5
"2009-06-25 01:02:30",1005547,3.694,195.8,9.88,0.585,20.84,108.6061,21.32,22.4,35.61,0,110.8,13.21,22.14,157.8
"2009-06-25 01:03:00",1005548,3.463,190.9,5.947,0.33,20.82,108.6061,21.32,22.38,35.48,0,110.8,13.21,22.14,152.9
"2009-06-25 01:03:30",1005549,3.659,177.9,11.05,0.423,20.63,108.6056,21.31,22.36,35.4,0,110.8,13.21,22.14,139.9
"2009-06-25 01:04:00",1005550,4.385,172.4,7.999,0.389,20.51,108.6042,21.31,22.34,35.37,0,110.8,13.21,22.14,134.4
"2009-06-25 01:04:30",1005551,4.32,176.4,5.97,0.539,20.28,108.6005,21.3,22.34,35.51,0,110.8,13.21,22.13,138.4
"2009-06-25 01:05:00",1005552,3.469,190.1,3.201,0.286,20.29,108.6011,21.3,22.32,35.63,0,110.8,13.21,22.13,152.1
"2009-06-25 01:05:30",1005553,2.95,183.8,6.228,0.244,20.36,108.6013,21.3,22.33,35.46,0,110.8,13.21,22.13,145.8
"2009-06-25 01:06:00",1005554,2.362,204.5,6.538,0.208,20.36,108.5994,21.3,22.32,35.45,0,110.8,13.21,22.12,166.5
"2009-06-25 01:06:30",1005555,3.035,212.9,7.651,0.431,20.51,108.6028,21.31,22.31,35.16,0,110.8,13.21,22.13,174.9
"2009-06-25 01:07:00",1005556,3.576,201.9,7.073,0.369,20.51,108.6033,21.31,22.31,35.11,0,110.8,13.21,22.13,163.9
"2009-06-25 01:07:30",1005557,4.841,171.5,7.673,0.323,20.29,108.6061,21.32,22.32,35.16,0,110.8,13.21,22.14,133.5
"2009-06-25 01:08:00",1005558,4.208,188,2.654,0.527,20.41,108.6061,21.32,22.32,35.1,0,110.8,13.21,22.14,150.0
"2009-06-25 01:08:30",1005559,3.845,201.4,7.533,0.389,20.43,108.607,21.32,22.34,35.01,0,110.8,13.21,22.14,163.4
"2009-06-25 01:09:00",1005560,3.94,193.6,9.78,0.298,20.4,108.6182,21.35,22.34,34.95,0,110.8,13.21,22.17,155.6
"2009-06-25 01:09:30",1005561,4.536,204.7,10.42,0.595,20.44,108.6379,21.4,22.35,34.83,0,110.8,13.21,22.22,166.7
"2009-06-25 01:10:00",1005562,4.439,196.9,9.41,0.302,20.5,108.6399,21.4,22.36,34.75,0,110.8,13.21,22.23,158.9
"2009-06-25 01:10:30",1005563,3.173,199.2,5.422,0.491,20.86,108.6427,21.41,22.38,33.93,0,110.8,13.21,22.24,161.2
"2009-06-25 01:11:00",1005564,2.889,191.7,10.39,0.482,20.47,108.6618,21.46,22.39,34.2,0,110.8,13.21,22.28,153.7
"2009-06-25 01:11:30",1005565,3.357,175.5,10.07,0.462,20.4,108.6736,21.49,22.42,34.43,0,110.8,13.21,22.32,137.5
"2009-06-25 01:12:00",1005566,3.185,182.1,9.73,0.697,20.49,108.6748,21.49,22.43,34.22,0,110.8,13.21,22.32,144.1
"2009-06-25 01:12:30",1005567,4.142,163.7,11.36,0.343,20.34,108.695,21.54,22.46,34.16,0,110.8,13.21,22.37,125.7
"2009-06-25 01:13:00",1005568,4.874,175.1,10.82,0.901,20.48,108.7074,21.57,22.48,33.93,0,110.8,13.21,22.40,137.1
"2009-06-25 01:13:30",1005569,6.419,182.2,4.055,0.426,20.45,108.7161,21.6,22.51,33.75,0,110.8,13.21,22.42,144.2
"2009-06-25 01:14:00",1005570,5.996,173.1,6.485,0.393,20.54,108.7397,21.66,22.54,33.48,0,110.8,13.21,22.49,135.1
"2009-06-25 01:14:30",1005571,6.2,179.2,3.878,0.552,20.48,108.7482,21.68,22.57,33.48,0,110.8,13.21,22.51,141.2
"2009-06-25 01:15:00",1005572,4.145,175.6,9.2,0.398,20.51,108.7743,21.75,22.61,33.47,0,110.8,13.21,22.57,137.6
"2009-06-25 01:15:30",1005573,3.692,173.9,12.96,0.33,20.53,108.7763,21.75,22.63,33.19,0,110.8,13.21,22.58,135.9
"2009-06-25 01:16:00",1005574,3.72,155.3,4.176,0.504,20.52,108.7968,21.8,22.66,33.26,0,110.8,13.21,22.63,117.3
"2009-06-25 01:16:30",1005575,2.732,162.1,4.567,0.401,20.55,108.8086,21.83,22.67,33.11,0,110.8,13.21,22.66,124.1
"2009-06-25 01:17:00",1005576,2.04,171.9,17.13,0.427,20.65,108.8114,21.84,22.72,32.94,0,110.8,13.21,22.67,133.9
"2009-06-25 01:17:30",1005577,1.478,252.9,32.6,0.467,20.99,108.837,21.91,22.76,32.57,0,110.8,13.21,22.74,214.9
"2009-06-25 01:18:00",1005578,0.946,292.5,9.29,0.233,21.09,108.8424,21.92,22.79,32.41,0,110.8,13.21,22.75,254.5
"2009-06-25 01:18:30",1005579,1.045,311.9,10.22,0.395,20.97,108.8424,21.92,22.8,32.27,0,110.8,13.21,22.75,273.9
"2009-06-25 01:19:00",1005580,1.235,329.5,6.552,0.186,21.13,108.8564,21.96,22.83,32.13,0,110.8,13.21,22.79,291.5
"2009-06-25 01:19:30",1005581,0.512,320.3,22.22,0.343,21.07,108.8761,22.01,22.86,31.93,0,110.8,13.21,22.84,282.3
"2009-06-25 01:20:00",1005582,1.205,294.4,34.72,0.627,21.1,108.8761,22.01,22.88,31.86,0,110.8,13.21,22.84,256.4
"2009-06-25 01:20:30",1005583,1.445,269.4,32.43,0.583,21,108.8764,22.01,22.9,31.72,0,110.8,13.21,22.84,231.4
"2009-06-25 01:21:00",1005584,0.89,17.36,39.86,0.494,20.95,108.8969,22.06,22.94,31.61,0,110.8,13.21,22.89,339.4
"2009-06-25 01:21:30",1005585,1.03,76.94,23.24,0.34,20.76,108.9099,22.09,22.95,31.74,0,110.8,13.21,22.92,38.9
"2009-06-25 01:22:00",1005586,1.177,131.7,30.6,0.425,20.47,108.9099,22.09,22.98,32.04,0,110.8,13.21,22.92,93.7
"2009-06-25 01:22:30",1005587,0.846,141.8,10.96,0.235,20.51,108.9304,22.15,23.01,32.24,0,110.9,13.21,22.98,103.8
"2009-06-25 01:23:00",1005588,1.235,109.8,10.4,0.187,20.53,108.9425,22.18,23.05,32.19,0,110.8,13.21,23.01,71.8
"2009-06-25 01:23:30",1005589,0.816,104.4,6.624,0.201,20.64,108.9436,22.18,23.06,32.15,0,110.9,13.21,23.01,66.4
"2009-06-25 01:24:00",1005590,0.464,110.9,25.45,0.195,20.62,108.9448,22.18,23.08,32.06,0,110.9,13.21,23.01,72.9
"2009-06-25 01:24:30",1005591,0.434,110.5,11.52,0.123,20.65,108.9546,22.21,23.11,32.04,0,110.9,13.21,23.04,72.5
"2009-06-25 01:25:00",1005592,0.379,111.4,26.05,0.127,20.74,108.9709,22.25,23.12,31.97,0,110.9,13.21,23.08,73.4
"2009-06-25 01:25:30",1005593,0.718,228.7,25.66,0.435,20.78,108.9774,22.27,23.14,31.77,0,110.9,13.21,23.10,190.7
"2009-06-25 01:26:00",1005594,1.213,210.2,12.5,0.458,20.8,108.9774,22.27,23.16,31.63,0,110.9,13.21,23.10,172.2
"2009-06-25 01:26:30",1005595,1.431,226.6,16.63,0.21,20.81,108.9808,22.28,23.16,31.49,0,110.9,13.21,23.11,188.6
"2009-06-25 01:27:00",1005596,0.825,209.2,21.2,0.224,20.81,109.0038,22.34,23.2,31.44,0,110.9,13.21,23.17,171.2
"2009-06-25 01:27:30",1005597,1.308,185.5,16.22,0.308,20.72,109.0109,22.35,23.23,31.48,0,110.9,13.21,23.18,147.5
"2009-06-25 01:28:00",1005598,1.495,191.8,3.453,0.177,20.83,109.0111,22.35,23.24,31.47,0,110.9,13.21,23.18,153.8
"2009-06-25 01:28:30",1005599,1.343,190.1,9.45,0.135,20.89,109.0111,22.35,23.27,31.35,0,110.9,13.2,23.18,152.1
"2009-06-25 01:29:00",1005600,1.331,234.8,5.921,0.295,21.04,109.0111,22.35,23.27,31.05,0,110.9,13.2,23.18,196.8
"2009-06-25 01:29:30",1005601,0.425,181,18.28,0.191,20.88,109.0156,22.37,23.29,30.98,0,110.9,13.2,23.20,143.0
"2009-06-25 01:30:00",1005602,1.06,166.4,10.74,0.443,20.81,109.0393,22.43,23.31,31.01,0,110.9,13.2,23.26,128.4
"2009-06-25 01:30:30",1005603,1.999,138.9,4.833,0.366,20.57,109.0449,22.44,23.32,31.3,0,110.9,13.2,23.27,100.9
"2009-06-25 01:31:00",1005604,1.841,146.2,6.588,0.264,20.67,109.0449,22.44,23.33,31.36,0,110.9,13.2,23.27,108.2
"2009-06-25 01:31:30",1005605,1.578,137.1,7.156,0.221,20.66,109.0449,22.44,23.35,31.21,0,110.9,13.2,23.27,99.1
"2009-06-25 01:32:00",1005606,1.106,134.5,5.531,0.324,20.59,109.0449,22.44,23.35,31.31,0,110.9,13.2,23.27,96.5
"2009-06-25 01:32:30",1005607,0.729,157,9.87,0.229,20.58,109.0449,22.44,23.36,31.27,0,110.9,13.21,23.27,119.0
"2009-06-25 01:33:00",1005608,1.1,150.6,7.721,0.249,20.58,109.0449,22.44,23.38,31.24,0,110.9,13.21,23.27,112.6
"2009-06-25 01:33:30",1005609,0.949,153.6,6.009,0.159,20.59,109.046,22.44,23.39,31.21,0,110.9,13.21,23.27,115.6
"2009-06-25 01:34:00",1005610,0.901,135.4,10.07,0.177,20.61,109.0494,22.45,23.39,31.17,0,110.9,13.21,23.28,97.4
"2009-06-25 01:34:30",1005611,0.532,112.4,13.03,0.101,20.63,109.055,22.47,23.41,31.13,0,110.9,13.21,23.30,74.4
"2009-06-25 01:35:00",1005612,0.313,73.99,12.69,0.095,20.55,109.0632,22.49,23.42,31.19,0,110.9,13.21,23.32,36.0
"2009-06-25 01:35:30",1005613,0.08,95.2,19.45,0.056,20.52,109.0741,22.52,23.44,31.26,0,110.9,13.21,23.35,57.2
"2009-06-25 01:36:00",1005614,-0.006,115,20.15,0.057,20.5,109.0784,22.53,23.43,31.19,0,110.9,13.21,23.36,77.0
"2009-06-25 01:36:30",1005615,0.105,120.1,6.421,0.056,20.51,109.0786,22.53,23.44,31.13,0,110.9,13.21,23.36,82.1
"2009-06-25 01:37:00",1005616,-0.051,136.4,14.72,0.058,20.45,109.0783,22.53,23.45,30.99,0,110.9,13.21,23.36,98.4
"2009-06-25 01:37:30",1005617,-0.06,102.4,48.64,0.028,20.35,109.078,22.53,23.47,30.94,0,110.9,13.21,23.36,64.4
"2009-06-25 01:38:00",1005618,-0.036,39.4,41.99,0.071,20.32,109.078,22.53,23.47,30.95,0,110.9,13.21,23.36,1.4
"2009-06-25 01:38:30",1005619,0.345,336.3,14,0.107,20.3,109.0764,22.52,23.49,30.93,0,110.9,13.21,23.35,298.3
"2009-06-25 01:39:00",1005620,0.561,328.6,7.978,0.134,20.36,109.0778,22.53,23.5,30.69,0,110.9,13.21,23.36,290.6
"2009-06-25 01:39:30",1005621,0.7,318.2,5.949,0.084,20.4,109.0843,22.54,23.49,30.56,0,110.9,13.21,23.37,280.2
"2009-06-25 01:40:00",1005622,0.649,318.2,12.06,0.154,20.39,109.0995,22.58,23.5,30.53,0,110.9,13.21,23.41,280.2
"2009-06-25 01:40:30",1005623,0.786,323.2,3.985,0.121,20.46,109.0983,22.58,23.53,30.47,0,110.9,13.21,23.41,285.2
"2009-06-25 01:41:00",1005624,0.963,318.9,3.338,0.095,20.45,109.0949,22.57,23.54,30.42,0,110.9,13.21,23.40,280.9
"2009-06-25 01:41:30",1005625,1.105,317.5,4.67,0.091,20.41,109.0951,22.57,23.56,30.39,0,110.9,13.21,23.40,279.5
"2009-06-25 01:42:00",1005626,0.936,309.7,3.738,0.091,20.48,109.1093,22.61,23.57,30.32,0,110.9,13.21,23.44,271.7
"2009-06-25 01:42:30",1005627,0.726,322.9,9.66,0.092,20.39,109.1195,22.63,23.59,30.25,0,110.9,13.21,23.46,284.9
"2009-06-25 01:43:00",1005628,0.543,339.4,29.59,0.125,20.35,109.1194,22.63,23.6,30.35,0,110.9,13.21,23.46,301.4
"2009-06-25 01:43:30",1005629,0.7,10.33,22.65,0.252,20.25,109.1205,22.64,23.63,30.41,0,110.9,13.21,23.47,332.3
"2009-06-25 01:44:00",1005630,0.651,40.98,9.63,0.212,20.18,109.1395,22.68,23.64,30.48,0,110.9,13.21,23.52,3.0
"2009-06-25 01:44:30",1005631,0.711,354.4,18.91,0.188,20.4,109.1455,22.7,23.65,30.49,0,110.9,13.2,23.53,316.4
"2009-06-25 01:45:00",1005632,0.89,342.6,7.979,0.155,20.41,109.144,22.7,23.68,30.35,0,110.9,13.2,23.53,304.6
"2009-06-25 01:45:30",1005633,0.316,4.636,17.1,0.211,20.41,109.1593,22.74,23.7,30.23,0,110.9,13.2,23.57,326.6
"2009-06-25 01:46:00",1005634,0.742,352.9,12.35,0.176,20.34,109.1751,22.78,23.72,30.29,0,110.9,13.2,23.61,314.9
"2009-06-25 01:46:30",1005635,0.764,341.3,17.59,0.282,20.38,109.1768,22.78,23.75,30.23,0,110.9,13.2,23.61,303.3
"2009-06-25 01:47:00",1005636,0.853,319.1,10.62,0.212,20.33,109.181,22.79,23.76,30.19,0,110.9,13.2,23.62,281.1